Regional Weather Roundup
Issued by NWS

Home | Current Version | Previous Version | Graphics & Text | Print | Product List | Glossary On
Versions: 1 2 3 4 5 6 7 8 9 10 11 12 13 14 15 16 17 18 19 20 21 22 23 24 25 26 27 28 29 30 31 32 33 34 35 36 37 38 39 40 41 42 43 44 45 46 47 48 49 50
000
ASUS43 KMPX 301810
RWRMN
WEATHER ROUNDUP FOR MINNESOTA
NATIONAL WEATHER SERVICE TWIN CITIES/CHANHASSEN MN
1200 PM CST FRI JAN 30 2015


NOTE: "FAIR" INDICATES FEW OR NO CLOUDS BELOW 12,000 FEET WITH NO
SIGNIFICANT WEATHER AND/OR OBSTRUCTIONS TO VISIBILITY. N/A MEANS
CURRENT SKY AND/OR WEATHER CONDITIONS ARE NOT AVAILABLE.

MNZ060>063-068>070-301900-
   Twin Cities Metro

CITY           SKY/WX    TMP DP  RH WIND       PRES   REMARKS
TWIN CITIES    PTSUNNY   19   9  65 S8        30.48F WCI   9
6HR MIN TEMP:  11; 6HR MAX TEMP:  19;

ST PAUL        MOSUNNY   20   9  62 S10       30.49F WCI   9
CRYSTAL        MOSUNNY   21  10  62 VRB7      30.46F WCI  12
BLAINE         PTSUNNY   21  10  63 S8        30.46F WCI  12
LAKEVILLE      MOSUNNY   19  12  73 SW6       30.46F WCI  11
EDEN PRAIRIE   MOSUNNY   20  11  68 SW7       30.46F WCI  11
6HR MIN TEMP:  11; 6HR MAX TEMP:  20;

SOUTH ST PAUL  PTSUNNY   20   9  61 S7        30.48F WCI  11
LAKE ELMO      FAIR      19  10  68 SW10      30.48F WCI   8
$$
MNZ001>005-007-008-013>017-022>024-027-028-301900-
   Northwest Minnesota

CITY           SKY/WX    TMP DP  RH WIND       PRES   REMARKS
BEMIDJI        PTSUNNY   12   6  77 S8        30.29F WCI   0
HALLOCK        CLOUDY    16  12  86 S18       30.22F WCI  -1
ROSEAU         MOSUNNY   12   7  79 S16       30.23F WCI  -4
WARROAD        PTSUNNY   10   5  79 S8        30.25F WCI  -1
THIEF RVR FALL CLOUDY    16  16 100 S10       30.24F WCI   3
CROOKSTON      CLOUDY    19  16  86 S21G26    30.24F WCI   3
FOSSTON        CLOUDY    14  10  85 S15       30.25F WCI  -1
DETROIT LAKES  MOSUNNY   19  14  79 S16       30.29F WCI   5
MOORHEAD       PTSUNNY   21  19  93 S22       30.29F WCI   5
PARK RAPIDS    CLOUDY    16   8  71 S14       30.29F WCI   2
MAHNOMEN       CLOUDY    16  11  80 S14G22    30.26F WCI   2
$$
MNZ006-009>011-018-025>026-301900-
   North Central Minnesota

CITY           SKY/WX    TMP DP  RH WIND       PRES   REMARKS
BAUDETTE       CLOUDY     8   2  76 S6        30.28F WCI  -2
FLAG ISLAND    LGT SNOW   5   1  85 S17       30.26F WCI -14
INTL FALLS     LGT SNOW   4  -1  80 SE7       30.34F VSB 3/4 WCI  -8
6HR MIN TEMP: -10; 6HR MAX TEMP:   4; 6HR PCP:  0.02;

WASKISH        CLOUDY    12   3  67 CALM      30.30F
BIG FORK       CLOUDY    10   3  72 SE6       30.32F WCI   1
LONGVILLE      CLOUDY    10   3  72 S8        30.33F WCI  -1
GRAND RAPIDS   CLOUDY    10   1  67 S8        30.33F WCI  -1
CRANE LAKE     LGT SNOW   3  -2  78 CALM      30.40F
ORR            LGT SNOW   5  -2  72 CALM      30.33F
COOK           FLURRIES   7   0  72 CALM      30.36F
WALKER         CLOUDY    12   5  73 S5        30.30F WCI   4
$$
MNZ012-019>021-037-301900-
   Northeast Minnesota

CITY           SKY/WX    TMP DP  RH WIND       PRES   REMARKS
DULUTH         CLOUDY    10   0  63 S8        30.37F WCI  -2
6HR MIN TEMP:  -1; 6HR MAX TEMP:  10;

ELY            CLOUDY     7  -2  66 CALM      30.35F
HIBBING        CLOUDY     9   0  67 SW6       30.36F WCI  -1
EVELETH        FLURRIES   9   1  72 SW6       30.37F WCI  -1
DULUTH HARBOR  CLOUDY    12   3  67 CALM      30.47F
TWO HARBORS    PTSUNNY   12   1  62 SW6       30.38F WCI   3
SILVER BAY     PTSUNNY   12   0  57 S3        30.37F
GRAND MARAIS     N/A     12   2  64 SW5       30.44F WCI   4
G MARAIS ARPRT CLOUDY     9  -9  43 SW6       30.31F WCI  -1
$$
MNZ029>031-032-039>041-046>048-054>057-064-301900-
   West Central Minnesota

CITY           SKY/WX    TMP DP  RH WIND       PRES   REMARKS
FERGUS FALLS   CLOUDY    19  14  79 S20       30.35F WCI   4
WHEATON        SUNNY     23  19  86 SE20      30.32F WCI   8
MORRIS         CLOUDY    21  18  86 S16       30.35F WCI   7
ALEXANDRIA     CLOUDY    16  12  84 S15       30.37F WCI   1
ELBOW LAKE     CLOUDY    19  15  87 SE17      30.34F WCI   4
WADENA         MOSUNNY   19  10  68 S12       30.31F WCI   7
GLENWOOD       FLURRIES  18  14  86 S13       30.38F WCI   4
APPLETON       CLOUDY    25  19  80 S9        30.37F WCI  15
BENSON         CLOUDY    21  16  79 S12       30.38F WCI   9
ORTONVILLE     SUNNY     27  19  74 SE12      30.32F WCI  16
MADISON        SUNNY     32  25  74 S14       30.35F WCI  22
WILLMAR        CLOUDY    19  14  79 S8        30.42F WCI   9
$$
MNZ033>034-036-042>043-049>051-058-059-301900-
   Central Minnesota

CITY           SKY/WX    TMP DP  RH WIND       PRES   REMARKS
ST CLOUD       SUNNY     19   8  62 S12       30.42F WCI   7
6HR MIN TEMP:   9; 6HR MAX TEMP:  19;

SAUK CENTRE    FAIR      19  11  72 S14       30.39F WCI   5
PAYNESVILLE    MOSUNNY   16  10  77 SE10      30.41F WCI   4
AITKIN         CLOUDY    16   7  67 S8        30.36F WCI   5
PINE RIVER     CLOUDY    12   7  79 S12       30.36F WCI  -2
BRAINERD       CLOUDY    15   7  70 S12       30.37F WCI   2
STAPLES        MOSUNNY   18   9  68 S15       30.34F WCI   3
LONG PRAIRIE   FAIR      19  10  68 S13G18    30.38F WCI   7
LITTLE FALLS   MOSUNNY   19   9  63 S9        30.40F WCI   9
LITCHFIELD     MOSUNNY   23  16  74 S5        30.43F WCI  17
BUFFALO        MOSUNNY   20  11  67 S6        30.46F WCI  12
MAPLE LAKE     SUNNY     21  13  72 S7        30.45F WCI  12
$$
MNZ037-044-045-052-053-301900-
   East Central Minnesota

CITY           SKY/WX    TMP DP  RH WIND       PRES   REMARKS
PRINCETON      MOSUNNY   21  10  63 S8        30.43F WCI  12
MORA           PTSUNNY   14   7  73 S9        30.45F WCI   2
CAMBRIDGE      PTSUNNY   18   7  62 S6        30.44F WCI   9
RUSH CITY      PTSUNNY   14   6  69 S6        30.46F WCI   5
MOOSE LAKE     CLOUDY    14   5  67 SW8       30.40F WCI   3
HINCKLEY       CLOUDY    14   7  73 S9        30.43F WCI   2
CLOQUET        CLOUDY    10   1  67 S7        30.39F WCI   0
MCGREGOR       CLOUDY    14   9  79 S6        30.39F WCI   5
$$
MNZ071>073-080-081-089-090-097-098-301900-
   Southwest Minnesota

CITY           SKY/WX    TMP DP  RH WIND       PRES   REMARKS
MONTEVIDEO     CLOUDY    25  21  86 SW13      30.39F WCI  13
GRANITE FALLS  CLOUDY    25  20  82 S12       30.41F WCI  14
CANBY          SUNNY     31  23  71 S10       30.35F WCI  22
MARSHALL       PTSUNNY   28  19  69 S13       30.39F WCI  18
REDWOOD FALLS  CLOUDY    21  16  81 S13       30.43F WCI   9
OLIVIA         CLOUDY    19  16  86 S9        30.42F WCI   9
PIPESTONE      MOSUNNY   28  23  80 S15       30.33F WCI  17
WINDOM         CLOUDY    23  19  86 S8        30.41F WCI  14
WORTHINGTON    MOSUNNY   25  18  74 S13       30.40F WCI  13
JACKSON        SUNNY     25  18  74 S8        30.43F WCI  16
TRACY          CLOUDY    26  21  80 S10       30.39F WCI  16
SLAYTON        MOSUNNY   25  20  80 S12       30.37F WCI  14
$$
MNZ065>067-074>077-082>085-091>093-301900-
   South Central Minnesota

CITY           SKY/WX    TMP DP  RH WIND       PRES   REMARKS
MANKATO        SUNNY     21  10  63 S13       30.45F WCI   9
NEW ULM        SUNNY     21  12  68 S9        30.44F WCI  11
ST JAMES       SUNNY     25  14  63 S9        30.46F WCI  15
FAIRMONT       SUNNY     25  12  58 S9G16     30.45F WCI  15
GLENCOE        SUNNY     23  16  74 SW8       30.45F WCI  14
FARIBAULT      SUNNY     21  14  73 S5        30.46F WCI  15
OWATONNA       SUNNY     21  14  73 S10       30.46F WCI  10
WASECA         MOSUNNY   23  16  74 S13G18    30.48F WCI  11
ALBERT LEA     SUNNY     21  12  68 S7        30.47F WCI  13
$$
MNZ078>079-086>088-094>096-301900-
   Southeast Minnesota

CITY           SKY/WX    TMP DP  RH WIND       PRES   REMARKS
ROCHESTER      MOSUNNY   16   9  74 S10       30.47F WCI   4
6HR MIN TEMP:   6; 6HR MAX TEMP:  16;

RED WING       MOSUNNY   19   7  58 S5        30.49F WCI  13
STANTON        MOSUNNY   22  13  66 SW7       30.46F WCI  14
DODGE CENTER   SUNNY     19  12  73 S10       30.45F WCI   8
WINONA         PTSUNNY   19   9  63 CALM      30.54F
AUSTIN         MOSUNNY   19  10  68 S8        30.48F WCI   9
PRESTON        MOSUNNY   17   8  66 CALM      30.50F
$$
ABBREVIATIONS USED IN REMARKS
   TC - TEMPERATURES IN CELSIUS
  WCI - WIND CHILL INDEX
   HX - HEAT INDEX
  VSB - VISIBILITY
$$



USA.gov is the U.S. government's official web portal to all federal, state and local government web resources and services.